Terminal Aerodrome Forecast
Issued by NWS Jacksonville, FL

Home | Current Version | Previous Version | Text Only | Print | Product List | Glossary On
Versions: 1 2 3 4 5 6 7 8 9 10 11 12 13 14 15 16 17
963
FTUS42 KJAX 272339
TAFJAX
TAF
KJAX 272339Z 2800/2824 08006KT P6SM FEW040 BKN250
     FM280100 VRB04KT P6SM FEW025
     FM281000 VRB03KT 4SM BR SCT003
     FM281300 25008KT P6SM SCT025 BKN040 BKN250
     FM281900 24007KT P6SM VCTS SCT030CB BKN050=

USA.gov is the U.S. government's official web portal to all federal, state and local government web resources and services.